User: anonymous   Login
Location: Frankfurt am Main
(50.1109°N, 8.6821°E)
Time: 06:39:06
(UTC+02:00)
Language:

ISS - Orbit

View from above orbital plane
View from above orbital plane
View from above satellite
View from above satellite

Ground track
Ground track

The orbit data is extracted from the following two-line orbital elements,

1 25544U 98067A   19231.50490459  .00016717  00000-0  10270-3 0  9054
2 25544  51.6395  47.1448 0007350 300.4827  59.5597 15.50373703 25076
Epoch (UTC): 19 August 2019 12:07:03
Eccentricity: 0.0007350
inclination: 51.6395°
perigee height: 410 km
apogee height: 420 km
right ascension of ascending node: 47.1448°
argument of perigee: 300.4827°
revolutions per day: 15.50373703
mean anomaly at epoch: 59.5597°
orbit number at epoch: 2507

The dashed part of the orbit path shows where the satellite is in the earth's shadow,  

DLR